Newport, VT

2:48 AM EDT on April 22, 2018 (GMT -0400)
Newport State

Weather History for KEFK - December, 2011

Change the Weather History Date:

Wednesday, December 21, 2011

  Actual Average Record
Temperature  
Mean Temperature 28 °F -  
Max Temperature 39 °F 28 °F 58 °F (1957)
Min Temperature 17 °F 10 °F -28 °F (1942)
Degree Days  
Heating Degree Days 37    
Moisture  
Dew Point 23 °F    
Average Humidity 72    
Maximum Humidity 84    
Minimum Humidity 54    
Precipitation  
Precipitation 0.00 in - - ()
Sea Level Pressure  
Sea Level Pressure 29.85 in    
Wind  
Wind Speed 6 mph (South)    
Max Wind Speed 10 mph    
Max Gust Speed -    
Visibility 8 miles    
Events Rain , Snow    
Averages and records for this station are not official NWS values.
T = Trace of Precipitation, MM = Missing Value Source: NWS Daily Summary

Daily Weather History Graph

Daily Weather History Graph

Search for Another Location

Airport or City:

Astronomy

Dec. 21, 2011 Rise Set
Actual Time 7:23 AM EST 4:10 PM EST
Civil Twilight 6:49 AM EST 4:44 PM EST
Nautical Twilight 6:12 AM EST 5:21 PM EST
Astronomical Twilight 5:36 AM EST 5:57 PM EST
Moon 3:50 AM EST (12/21) 1:29 PM EST (12/21)
Length of Visible Light 9h 54m
Length of Day
8h 46m
Waning Crescent, 12% of the Moon is Illuminated
Dec 21
Waning Crescent
Dec 24
New
Jan 1
First Quarter
Jan 9
Full
Jan 16
Last Quarter

Hourly Weather History & Observations

Time (EST) Temp. Windchill Dew Point Humidity Pressure Visibility Wind Dir Wind Speed Gust Speed Precip Events Conditions
12:15 AM 17.2 °F 7.8 °F 8.2 °F 68% 30.09 in 10.0 mi SSW 6.9 mph - N/A   Clear
12:35 AM 20.1 °F 12.3 °F 10.0 °F 65% 30.08 in 10.0 mi South 5.8 mph - N/A   Clear
12:55 AM 21.2 °F 14.9 °F 9.7 °F 61% 30.06 in 10.0 mi South 4.6 mph - N/A   Clear
1:15 AM 21.4 °F 15.1 °F 10.0 °F 62% 30.05 in 10.0 mi South 4.6 mph - N/A   Clear
1:35 AM 21.9 °F 15.7 °F 9.7 °F 59% 30.05 in 10.0 mi South 4.6 mph - N/A   Clear
2:15 AM 22.1 °F 13.7 °F 9.9 °F 59% 30.04 in 10.0 mi SSW 6.9 mph - N/A   Clear
2:35 AM 22.6 °F 14.3 °F 10.6 °F 60% 30.04 in 10.0 mi SSW 6.9 mph - N/A   Scattered Clouds
2:55 AM 23.9 °F 13.5 °F 9.5 °F 54% 30.04 in 10.0 mi South 10.4 mph - N/A   Mostly Cloudy
3:15 AM 24.6 °F 14.4 °F 10.0 °F 54% 30.02 in 10.0 mi South 10.4 mph - N/A   Overcast
3:35 AM 24.8 °F 16.1 °F 10.0 °F 54% 30.02 in 10.0 mi South 8.1 mph - N/A   Overcast
3:55 AM 24.4 °F 16.5 °F 10.6 °F 56% 30.00 in 10.0 mi South 6.9 mph - N/A   Overcast
4:15 AM 23.9 °F 15.8 °F 12.2 °F 61% 30.00 in 10.0 mi SSE 6.9 mph - N/A   Overcast
4:35 AM 24.8 °F 16.1 °F 11.1 °F 56% 29.99 in 10.0 mi SSE 8.1 mph - N/A   Overcast
4:55 AM 24.1 °F 14.4 °F 11.5 °F 59% 29.99 in 10.0 mi SE 9.2 mph - N/A   Overcast
5:15 AM 24.6 °F 16.7 °F 12.4 °F 60% 29.99 in 10.0 mi South 6.9 mph - N/A   Overcast
5:35 AM 26.2 °F 19.6 °F 12.2 °F 55% 29.99 in 10.0 mi South 5.8 mph - N/A   Overcast
5:55 AM 26.6 °F 19.1 °F 12.6 °F 55% 29.98 in 10.0 mi SSE 6.9 mph - N/A   Overcast
6:15 AM 27.5 °F 21.1 °F 12.6 °F 54% 29.98 in 10.0 mi SSE 5.8 mph - N/A   Overcast
6:35 AM 27.9 °F 21.5 °F 13.5 °F 55% 29.98 in 10.0 mi South 5.8 mph - N/A   Overcast
6:55 AM 27.7 °F 22.4 °F 16.0 °F 62% 29.99 in 10.0 mi SSE 4.6 mph - N/A   Overcast
7:15 AM 27.5 °F 23.6 °F 16.7 °F 64% 29.98 in 10.0 mi East 3.5 mph - N/A   Overcast
7:35 AM 28.4 °F 24.6 °F 18.1 °F 65% 29.97 in 10.0 mi ESE 3.5 mph - N/A   Overcast
7:55 AM 28.9 °F 25.2 °F 18.7 °F 66% 29.97 in 10.0 mi South 3.5 mph - N/A   Overcast
8:15 AM 29.3 °F - 19.4 °F 67% 29.97 in 3.0 mi Calm Calm - N/A Snow Light Snow
8:35 AM 29.8 °F 24.9 °F 21.6 °F 71% 29.96 in 2.5 mi South 4.6 mph - N/A Snow Light Snow
8:55 AM 30.0 °F 26.5 °F 22.8 °F 75% 29.95 in 4.0 mi South 3.5 mph - N/A Snow Light Snow
9:15 AM 30.2 °F 26.7 °F 23.5 °F 76% 29.94 in 7.0 mi South 3.5 mph - N/A Snow Light Snow
9:35 AM 30.7 °F 24.9 °F 23.9 °F 76% 29.94 in 10.0 mi SSW 5.8 mph - N/A   Overcast
9:55 AM 30.9 °F 25.2 °F 23.9 °F 75% 29.94 in 7.0 mi South 5.8 mph - N/A   Overcast
10:15 AM 31.1 °F 26.4 °F 24.3 °F 76% 29.93 in 10.0 mi South 4.6 mph - N/A   Overcast
10:55 AM 32.2 °F 27.7 °F 25.5 °F 76% 29.91 in 10.0 mi South 4.6 mph - N/A   Overcast
11:35 AM 33.1 °F 26.1 °F 26.6 °F 77% 29.86 in 10.0 mi SSW 8.1 mph - N/A   Overcast
11:55 AM 33.8 °F 29.6 °F 27.1 °F 77% 29.85 in 10.0 mi South 4.6 mph - N/A   Overcast
12:35 PM 35.2 °F 29.5 °F 28.0 °F 75% 29.82 in 10.0 mi SSW 6.9 mph - N/A   Overcast
12:55 PM 35.6 °F 29.9 °F 28.0 °F 74% 29.82 in 10.0 mi SSW 6.9 mph - N/A   Overcast
1:15 PM 34.7 °F 30.6 °F 28.6 °F 78% 29.81 in 2.5 mi SSW 4.6 mph - N/A   Overcast
1:35 PM 35.2 °F 32.4 °F 30.0 °F 81% 29.80 in 2.5 mi South 3.5 mph - N/A   Overcast
1:55 PM 35.6 °F 30.7 °F 30.2 °F 81% 29.78 in 1.5 mi South 5.8 mph - N/A   Overcast
2:15 PM 35.6 °F 28.6 °F 31.1 °F 84% 29.76 in 2.5 mi South 9.2 mph - N/A   Overcast
2:35 PM 35.6 °F 30.7 °F 31.1 °F 84% 29.75 in 4.0 mi South 5.8 mph - N/A   Light Drizzle
2:55 PM 35.6 °F 32.8 °F 30.9 °F 83% 29.74 in 5.0 mi SW 3.5 mph - N/A   Haze
3:15 PM 35.6 °F 31.7 °F 30.9 °F 83% 29.74 in 4.0 mi SW 4.6 mph - N/A   Haze
3:35 PM 35.6 °F 29.2 °F 30.9 °F 83% 29.74 in 5.0 mi WSW 8.1 mph - N/A   Haze
3:55 PM 35.8 °F 29.4 °F 31.5 °F 84% 29.73 in 7.0 mi SW 8.1 mph - N/A   Overcast
4:15 PM 36.0 °F - 31.5 °F 84% 29.72 in 7.0 mi Calm Calm - N/A   Overcast
4:35 PM 36.1 °F - 31.6 °F 84% 29.70 in 7.0 mi Calm Calm - N/A Rain Rain
4:55 PM 36.5 °F 31.8 °F 31.8 °F 83% 29.68 in 4.0 mi South 5.8 mph - N/A Rain Rain
5:15 PM 36.3 °F 30.8 °F 31.8 °F 84% 29.68 in 4.0 mi South 6.9 mph - N/A   Drizzle
5:35 PM 36.5 °F 31.0 °F 32.0 °F 84% 29.65 in 4.0 mi South 6.9 mph - N/A   Light Drizzle
5:55 PM 36.7 °F 30.5 °F 32.0 °F 83% 29.65 in 5.0 mi SW 8.1 mph - N/A   Drizzle
6:15 PM 36.9 °F 33.1 °F 32.2 °F 83% 29.63 in 7.0 mi SSW 4.6 mph - N/A   Drizzle
6:35 PM 37.0 °F 31.6 °F 32.2 °F 83% 29.64 in 7.0 mi SSW 6.9 mph - N/A   Light Drizzle
6:55 PM 37.4 °F 34.9 °F 32.5 °F 83% 29.61 in 10.0 mi South 3.5 mph - N/A   Light Drizzle
7:35 PM 38.3 °F 33.9 °F 33.4 °F 83% 29.60 in 10.0 mi South 5.8 mph - N/A   Overcast
7:55 PM 38.3 °F 34.8 °F 33.1 °F 81% 29.62 in 10.0 mi SSE 4.6 mph - N/A   Overcast
8:15 PM 39.2 °F 35.0 °F 34.2 °F 82% 29.61 in 10.0 mi South 5.8 mph - N/A   Overcast
8:35 PM 39.2 °F 37.0 °F 34.0 °F 82% 29.61 in 10.0 mi SSE 3.5 mph - N/A   Overcast
8:55 PM 39.2 °F 35.9 °F 33.8 °F 81% 29.60 in 10.0 mi SE 4.6 mph - N/A   Overcast
9:15 PM 38.8 °F 34.6 °F 33.8 °F 82% 29.60 in 10.0 mi SSE 5.8 mph - N/A   Overcast
9:35 PM 39.2 °F 37.0 °F 34.2 °F 82% 29.58 in 10.0 mi South 3.5 mph - N/A   Overcast
9:55 PM 38.7 °F 35.2 °F 33.6 °F 82% 29.57 in 10.0 mi South 4.6 mph - N/A   Overcast
10:15 PM 38.8 °F 35.4 °F 33.8 °F 82% 29.58 in 7.0 mi South 4.6 mph - N/A Rain Rain
10:35 PM 39.2 °F 35.0 °F 34.3 °F 83% 29.58 in 4.0 mi SSE 5.8 mph - N/A Rain Rain
10:55 PM 40.1 °F 36.1 °F 35.1 °F 82% 29.57 in 7.0 mi SSE 5.8 mph - N/A Rain Light Rain
11:15 PM 40.1 °F 36.1 °F 35.2 °F 83% 29.57 in 5.0 mi South 5.8 mph - N/A Rain Rain
11:35 PM 40.3 °F 35.5 °F 35.6 °F 83% 29.56 in 10.0 mi South 6.9 mph - N/A Rain Light Rain
11:55 PM 41.0 °F 36.4 °F 36.0 °F 82% 29.56 in 10.0 mi South 6.9 mph - N/A   Overcast